[[{"header":{"parameterUnit":"m.s-1","parameterCategory":1,"la1":30.2992,"la2":30.254,"lo1":-89.0895,"lo2":-89.0443,"dy":0.0025,"dx":0.0025,"nx":19,"ny":19,"refTime":"2026-05-22T03:00:00:Z","depth":0,"parameterNumber":2,"parameterNumberName":"U-component_of_WINDS"},"data":[0,0,0,-0.4938,-0.4935,-0.4795,-0.4794,-0.4635,-0.4634,0,0,0,0,0,0,0,0,0,0,0,-0.4991,-0.499,-0.4938,-0.4935,-0.4795,-0.4794,-0.4635,-0.4634,0,0,0,0,0,0,0,0,0,0,0,-0.4991,-0.4991,-0.499,-0.4935,-0.4795,-0.4794,-0.4636,-0.4734,0,0,0,0,0,0,0,0,0,0,-0.4867,-0.4927,-0.4991,-0.499,-0.4934,-0.4795,-0.4794,-0.4739,-0.4728,-0.4707,0,-0.4691,0,-0.466,-0.4625,-0.4624,0,0,0,-0.4926,-0.4936,-0.4888,-0.499,-0.4933,-0.4796,-0.4856,-0.4733,-0.4721,-0.4693,-0.4689,-0.4682,-0.4658,-0.4624,-0.4623,-0.4533,-0.4533,0,0,-0.4934,-0.4972,-0.4896,-0.4881,-0.4903,-0.486,-0.4852,-0.4725,-0.4722,-0.4688,-0.4678,-0.4655,-0.4623,-0.4622,-0.4533,-0.4533,0,0,0,-0.4962,-0.4977,-0.4932,-0.4888,-0.4861,-0.4856,-0.4846,-0.4728,-0.471,-0.4676,-0.4653,-0.4622,-0.462,-0.4533,-0.4533,-0.457,0,0,0,-0.4966,-0.4994,-0.4936,-0.4958,-0.4864,-0.4793,-0.4852,-0.4719,-0.4703,-0.4654,-0.4622,-0.4619,-0.4533,-0.4533,-0.4569,-0.4581,0,0,0,-0.4996,-0.4997,-0.4981,-0.496,-0.4901,-0.4794,-0.4768,-0.4715,-0.469,-0.4624,-0.4618,-0.4532,-0.4533,-0.4568,-0.4579,-0.457,0,0,0,-0.5039,-0.5014,-0.4982,-0.4946,-0.4903,-0.4818,-0.4769,-0.4703,-0.4651,-0.4621,-0.4533,-0.4533,-0.4568,-0.4578,-0.4569,-0.457,-0.4573,0,0,-0.5028,-0.5014,-0.4989,-0.4957,-0.4888,-0.4836,-0.4773,-0.4688,-0.4647,-0.4574,-0.4571,-0.4569,-0.4579,-0.457,-0.4578,-0.4582,0,0,0,-0.4999,-0.4982,-0.4956,-0.4909,-0.4846,-0.4793,-0.4715,-0.4685,-0.4621,-0.4617,-0.4562,-0.4566,-0.456,-0.4558,-0.4561,-0.4554,-0.4533,-0.4533,-0.4533,-0.5037,-0.4988,-0.4946,-0.4881,-0.4837,-0.4759,-0.4719,-0.4665,-0.4625,-0.4614,-0.4592,-0.4603,-0.4603,-0.4604,-0.4598,-0.4587,-0.4588,-0.4588,-0.4588,-0.5018,-0.4988,-0.4941,-0.4883,-0.4833,-0.4783,-0.4709,-0.4685,-0.4633,-0.4615,-0.4606,-0.4591,-0.4609,-0.4601,-0.459,-0.459,-0.4589,-0.4589,-0.4589,-0.5038,-0.5015,-0.498,-0.4911,-0.4863,-0.4798,-0.4752,-0.4706,-0.4663,-0.4655,-0.4628,-0.4628,-0.4622,-0.4646,-0.4646,-0.4646,-0.4646,-0.4646,-0.4646,-0.5073,-0.5032,-0.4999,-0.4933,-0.49,-0.4849,-0.4775,-0.474,-0.4691,-0.4661,-0.4661,-0.4626,-0.462,-0.462,-0.4646,-0.4646,-0.4646,-0.4646,-0.4646,-0.5072,-0.5066,-0.5015,-0.4982,-0.4903,-0.4861,-0.4805,-0.474,-0.4705,-0.4685,-0.4652,-0.4655,-0.4636,-0.4634,-0.4634,-0.4661,-0.4661,-0.4661,-0.4661,-0.509,-0.5077,-0.5017,-0.4967,-0.4913,-0.4859,-0.4806,-0.4749,-0.4689,-0.4665,-0.4655,-0.4651,-0.4651,-0.4632,-0.463,-0.4629,-0.4655,-0.4655,-0.4655,-0.5088,-0.5069,-0.5031,-0.4974,-0.491,-0.4858,-0.4806,-0.4753,-0.4683,-0.4654,-0.4646,-0.4647,-0.464,-0.464,-0.4608,-0.4606,-0.4603,0,0]},{"header":{"parameterUnit":"m.s-1","parameterCategory":1,"la1":30.2992,"la2":30.254,"lo1":-89.0895,"lo2":-89.0443,"dy":0.0025,"dx":0.0025,"nx":19,"ny":19,"refTime":"2026-05-22T03:00:00:Z","depth":0,"parameterNumber":3,"parameterNumberName":"V-component_of_WINDS"},"data":[0,0,0,3.7132,3.7132,3.7133,3.7133,3.7135,3.7135,0,0,0,0,0,0,0,0,0,0,0,3.7135,3.7135,3.7132,3.7132,3.7133,3.7133,3.7135,3.7135,0,0,0,0,0,0,0,0,0,0,0,3.7135,3.7135,3.7135,3.7132,3.7133,3.7133,3.7135,3.7134,0,0,0,0,0,0,0,0,0,0,3.7132,3.7139,3.7135,3.7135,3.7132,3.7133,3.7133,3.7133,3.7134,3.7136,0,3.7142,0,3.7139,3.7136,3.7136,0,0,0,3.7129,3.7139,3.7136,3.7135,3.7132,3.7133,3.7131,3.7134,3.7134,3.7137,3.7142,3.7141,3.7139,3.7136,3.7136,3.7164,3.7164,0,0,3.7129,3.7136,3.7136,3.7136,3.7139,3.7131,3.7132,3.7134,3.7139,3.7142,3.7141,3.7139,3.7136,3.7136,3.7163,3.7164,0,0,0,3.7131,3.7136,3.7134,3.7137,3.7137,3.7132,3.7132,3.7139,3.7137,3.7141,3.7139,3.7136,3.7136,3.7163,3.7164,3.7183,0,0,0,3.7131,3.7138,3.7134,3.7138,3.7137,3.7138,3.7137,3.7137,3.7137,3.7139,3.7136,3.7136,3.7163,3.7163,3.7182,3.7191,0,0,0,3.7133,3.7138,3.7139,3.7139,3.714,3.7138,3.7137,3.7137,3.7135,3.7136,3.7136,3.7163,3.7163,3.7181,3.7189,3.7199,0,0,0,3.7138,3.7158,3.714,3.7159,3.714,3.7151,3.7136,3.7144,3.7147,3.7136,3.7163,3.7163,3.7181,3.7188,3.7198,3.7208,3.7213,0,0,3.7167,3.7161,3.7172,3.7156,3.7173,3.715,3.7169,3.7164,3.7157,3.7161,3.7162,3.7182,3.7189,3.7199,3.7242,3.7246,0,0,0,3.7183,3.7191,3.7194,3.7197,3.7194,3.7191,3.7183,3.7181,3.7184,3.7161,3.7189,3.7193,3.7198,3.7202,3.7206,3.7209,3.7166,3.7166,3.7166,3.7233,3.7223,3.7239,3.7228,3.7232,3.7222,3.7222,3.7217,3.7206,3.7213,3.7214,3.7242,3.7247,3.725,3.7253,3.7219,3.7219,3.7219,3.7219,3.7272,3.728,3.7264,3.7274,3.7262,3.7269,3.7259,3.7251,3.7254,3.7241,3.7245,3.7229,3.7255,3.7257,3.7221,3.7221,3.722,3.722,3.722,3.7302,3.7304,3.7301,3.7303,3.7306,3.7293,3.7297,3.7286,3.7276,3.728,3.7278,3.7278,3.7274,3.728,3.728,3.728,3.728,3.728,3.728,3.7334,3.733,3.7336,3.7333,3.7332,3.733,3.7318,3.7317,3.7312,3.7303,3.7303,3.7289,3.726,3.7252,3.7282,3.7282,3.7281,3.7281,3.7281,3.7375,3.7363,3.7372,3.7371,3.7365,3.7366,3.7352,3.7349,3.7346,3.7348,3.7333,3.7314,3.7307,3.7304,3.7297,3.7337,3.7337,3.7337,3.7337,3.7399,3.7395,3.74,3.7399,3.7397,3.7384,3.739,3.7381,3.7369,3.7365,3.7358,3.7348,3.7346,3.734,3.7337,3.733,3.7377,3.7377,3.7377,3.7422,3.7417,3.7426,3.7415,3.7409,3.7403,3.7408,3.7405,3.739,3.7379,3.7362,3.736,3.7344,3.734,3.7329,3.7323,3.7311,0,0]}]]